| time (UTC) | temp C | wind direction | speed KPH | gust KPH | rain 1hr cm | rain 24hr cm | rain mn cm | humidity % | barometer mb |
| 20260505224020 | 19 | 250 | 6.4 | 16.1 | 0.00 | 0.00 | 0.00 | 58 | 1002.8 |
| 20260505223040 | 19 | 275 | 8.0 | 27.4 | 0.00 | 0.00 | 0.00 | 59 | 1002.6 |
| 20260505222017 | 19 | 259 | 6.4 | 14.5 | 0.00 | 0.00 | 0.00 | 59 | 1002.4 |
| 20260505221018 | 19 | 227 | 4.8 | 17.7 | 0.00 | 0.00 | 0.00 | 58 | 1002.2 |
| 20260505220021 | 19 | 265 | 4.8 | 14.5 | 0.00 | 0.00 | 0.00 | 57 | 1002.2 |
| 20260505215018 | 20 | 244 | 4.8 | 12.9 | 0.00 | 0.00 | 0.00 | 56 | 1001.9 |
| 20260505214018 | 20 | 245 | 6.4 | 14.5 | 0.00 | 0.00 | 0.00 | 59 | 1001.8 |
| 20260505213021 | 19 | 283 | 6.4 | 17.7 | 0.00 | 0.00 | 0.00 | 64 | 1001.6 |
| 20260505212040 | 19 | 267 | 4.8 | 16.1 | 0.00 | 0.00 | 0.00 | 64 | 1001.4 |
| 20260505211019 | 20 | 300 | 8.0 | 16.1 | 0.00 | 0.00 | 0.00 | 65 | 1001.4 |
| 20260505210019 | 20 | 302 | 8.0 | 19.3 | 0.00 | 0.00 | 0.00 | 64 | 1001.1 |
| 20260505205019 | 21 | 203 | 4.8 | 14.5 | 0.00 | 0.00 | 0.00 | 58 | 1000.6 |
| 20260505204039 | 21 | 204 | 6.4 | 16.1 | 0.00 | 0.00 | 0.00 | 58 | 1000.4 |
| 20260505203020 | 21 | 185 | 6.4 | 16.1 | 0.00 | 0.00 | 0.00 | 59 | 1000.2 |
| 20260505202118 | 21 | 195 | 8.0 | 14.5 | 0.00 | 0.00 | 0.00 | 59 | 1000.2 |
| 20260505201020 | 21 | 185 | 8.0 | 16.1 | 0.00 | 0.00 | 0.00 | 61 | 1000.0 |
| 20260505200020 | 21 | 189 | 4.8 | 14.5 | 0.00 | 0.00 | 0.00 | 65 | 1000.1 |
| 20260505195017 | 20 | 190 | 8.0 | 17.7 | 0.00 | 0.00 | 0.00 | 66 | 1000.2 |
| 20260505194020 | 20 | 187 | 8.0 | 14.5 | 0.00 | 0.00 | 0.00 | 68 | 1000.1 |
| 20260505193017 | 20 | 180 | 6.4 | 16.1 | 0.00 | 0.00 | 0.00 | 68 | 1000.1 |
| 20260505192017 | 20 | 194 | 9.7 | 22.5 | 0.00 | 0.00 | 0.00 | 68 | 1000.0 |
| 20260505191018 | 21 | 182 | 11.3 | 25.7 | 0.00 | 0.00 | 0.00 | 64 | 999.9 |
| 20260505190018 | 21 | 191 | 8.0 | 16.1 | 0.00 | 0.00 | 0.00 | 59 | 999.8 |
| 20260505185018 | 21 | 194 | 6.4 | 16.1 | 0.00 | 0.00 | 0.00 | 61 | 999.9 |
| 20260505184042 | 20 | 192 | 8.0 | 16.1 | 0.00 | 0.00 | 0.00 | 63 | 1000.1 |
| 20260505183021 | 20 | 191 | 6.4 | 16.1 | 0.00 | 0.00 | 0.00 | 64 | 1000.1 |
| 20260505182018 | 20 | 219 | 6.4 | 19.3 | 0.00 | 0.00 | 0.00 | 63 | 1000.4 |
| 20260505181018 | 20 | 224 | 8.0 | 14.5 | 0.00 | 0.00 | 0.00 | 62 | 1000.3 |
| 20260505180019 | 21 | 210 | 9.7 | 20.9 | 0.00 | 0.00 | 0.00 | 60 | 1000.3 |
| 20260505175020 | 21 | 206 | 8.0 | 17.7 | 0.00 | 0.00 | 0.00 | 60 | 1000.2 |
| 20260505174019 | 21 | 233 | 8.0 | 17.7 | 0.00 | 0.00 | 0.00 | 60 | 1000.1 |
| 20260505173016 | 21 | 194 | 6.4 | 19.3 | 0.00 | 0.00 | 0.00 | 61 | 1000.0 |
| 20260505172019 | 21 | 195 | 4.8 | 12.9 | 0.00 | 0.00 | 0.00 | 62 | 999.8 |
| 20260505171020 | 20 | 179 | 4.8 | 11.3 | 0.00 | 0.00 | 0.00 | 64 | 1000.0 |
| 20260505170017 | 20 | 189 | 4.8 | 14.5 | 0.00 | 0.00 | 0.00 | 64 | 1000.0 |
| 20260505165019 | 20 | 198 | 4.8 | 16.1 | 0.00 | 0.00 | 0.00 | 65 | 1000.1 |
| 20260505164020 | 20 | 188 | 4.8 | 14.5 | 0.00 | 0.00 | 0.00 | 68 | 1000.1 |
| 20260505163037 | 20 | 189 | 6.4 | 14.5 | 0.00 | 0.00 | 0.00 | 69 | 1000.0 |
| 20260505162017 | 20 | 186 | 4.8 | 16.1 | 0.00 | 0.00 | 0.00 | 64 | 1000.0 |
| 20260505161041 | 21 | 190 | 4.8 | 11.3 | 0.00 | 0.00 | 0.00 | 65 | 1000.1 |
| 20260505153018 | 20 | 193 | 4.8 | 12.9 | 0.00 | 0.00 | 0.00 | 66 | 1000.4 |
| 20260505152018 | 20 | 190 | 6.4 | 12.9 | 0.00 | 0.00 | 0.00 | 68 | 1000.4 |
| 20260505151019 | 19 | 185 | 8.0 | 16.1 | 0.00 | 0.00 | 0.00 | 68 | 1000.4 |
| 20260505125021 | 12 | 190 | 6.4 | 12.9 | 0.00 | 0.00 | 0.00 | 87 | 1001.6 |
| 20260505124021 | 12 | 192 | 6.4 | 9.7 | 0.00 | 0.00 | 0.00 | 89 | 1001.6 |
| 20260505123021 | 12 | 179 | 6.4 | 12.9 | 0.00 | 0.00 | 0.00 | 89 | 1001.8 |
| 20260505122021 | 13 | 191 | 8.0 | 12.9 | 0.00 | 0.00 | 0.00 | 85 | 1002.0 |
| 20260505121043 | 13 | 201 | 4.8 | 14.5 | 0.00 | 0.00 | 0.00 | 78 | 1002.3 |
| 20260505120022 | 14 | 195 | 4.8 | 9.7 | 0.00 | 0.00 | 0.00 | 75 | 1002.2 |
| 20260505115023 | 15 | 183 | 8.0 | 12.9 | 0.00 | 0.00 | 0.00 | 67 | 1002.0 |
| 20260505114042 | 15 | 181 | 8.0 | 14.5 | 0.00 | 0.00 | 0.00 | 66 | 1001.6 |
| 20260505113019 | 15 | 180 | 8.0 | 17.7 | 0.00 | 0.00 | 0.00 | 65 | 1001.5 |
| 20260505112023 | 14 | 190 | 6.4 | 14.5 | 0.00 | 0.00 | 0.00 | 66 | 1001.5 |
| 20260505111016 | 14 | 200 | 6.4 | 14.5 | 0.00 | 0.00 | 0.00 | 67 | 1001.3 |
| 20260505102023 | 13 | 201 | 6.4 | 12.9 | 0.00 | 0.00 | 0.00 | 66 | 1001.1 |
| 20260505101017 | 13 | 198 | 6.4 | 11.3 | 0.00 | 0.00 | 0.00 | 67 | 1001.0 |
| 20260505100040 | 13 | 196 | 8.0 | 14.5 | 0.00 | 0.00 | 0.00 | 67 | 1001.1 |
| 20260505095018 | 13 | 192 | 6.4 | 12.9 | 0.00 | 0.00 | 0.00 | 67 | 1001.2 |
| 20260505094018 | 13 | 196 | 6.4 | 9.7 | 0.00 | 0.00 | 0.00 | 67 | 1001.3 |
| 20260505093019 | 13 | 200 | 4.8 | 11.3 | 0.00 | 0.00 | 0.00 | 67 | 1001.4 |
| 20260505092019 | 13 | 201 | 4.8 | 9.7 | 0.00 | 0.00 | 0.00 | 67 | 1001.4 |
| 20260505091018 | 13 | 205 | 6.4 | 12.9 | 0.00 | 0.00 | 0.00 | 66 | 1001.4 |
| 20260505090019 | 13 | 199 | 8.0 | 14.5 | 0.00 | 0.00 | 0.00 | 66 | 1001.4 |
| 20260505085019 | 13 | 191 | 6.4 | 12.9 | 0.00 | 0.00 | 0.00 | 66 | 1001.3 |
| 20260505084020 | 13 | 198 | 6.4 | 11.3 | 0.00 | 0.00 | 0.00 | 67 | 1001.4 |
| 20260505083019 | 13 | 199 | 6.4 | 11.3 | 0.00 | 0.00 | 0.00 | 67 | 1001.4 |
| 20260505082019 | 13 | 208 | 6.4 | 14.5 | 0.00 | 0.00 | 0.00 | 67 | 1001.5 |
| 20260505081021 | 13 | 193 | 6.4 | 11.3 | 0.00 | 0.00 | 0.00 | 68 | 1001.3 |
| 20260505080020 | 12 | 204 | 6.4 | 11.3 | 0.00 | 0.00 | 0.00 | 69 | 1001.4 |
| 20260505075021 | 12 | 195 | 6.4 | 11.3 | 0.00 | 0.00 | 0.00 | 70 | 1001.4 |
| 20260505074020 | 12 | 191 | 6.4 | 11.3 | 0.00 | 0.00 | 0.00 | 70 | 1001.5 |
| 20260505073040 | 12 | 196 | 4.8 | 8.0 | 0.00 | 0.00 | 0.00 | 70 | 1001.6 |
| 20260505072040 | 12 | 195 | 4.8 | 11.3 | 0.00 | 0.00 | 0.00 | 69 | 1001.7 |
| 20260505071022 | 13 | 213 | 6.4 | 12.9 | 0.00 | 0.00 | 0.00 | 67 | 1001.9 |
| 20260505070022 | 13 | 207 | 4.8 | 9.7 | 0.00 | 0.00 | 0.00 | 66 | 1001.9 |
| 20260505065021 | 13 | 193 | 4.8 | 9.7 | 0.00 | 0.00 | 0.00 | 66 | 1001.8 |
| 20260505064021 | 13 | 205 | 4.8 | 11.3 | 0.00 | 0.00 | 0.00 | 65 | 1001.8 |
| 20260505063022 | 13 | 190 | 4.8 | 9.7 | 0.00 | 0.00 | 0.00 | 64 | 1001.8 |
| 20260505062041 | 13 | 201 | 4.8 | 11.3 | 0.00 | 0.00 | 0.00 | 65 | 1001.8 |
| 20260505061022 | 13 | 200 | 4.8 | 8.0 | 0.00 | 0.00 | 0.00 | 64 | 1001.8 |
| 20260505060022 | 14 | 197 | 4.8 | 11.3 | 0.00 | 0.00 | 0.00 | 64 | 1001.9 |
| 20260505055023 | 14 | 195 | 4.8 | 11.3 | 0.00 | 0.00 | 0.00 | 63 | 1002.0 |
| 20260505054022 | 14 | 198 | 4.8 | 11.3 | 0.00 | 0.00 | 0.00 | 63 | 1002.1 |
| 20260505053022 | 14 | 199 | 4.8 | 9.7 | 0.00 | 0.00 | 0.00 | 63 | 1002.2 |
| 20260505052023 | 14 | 206 | 4.8 | 9.7 | 0.00 | 0.00 | 0.00 | 64 | 1002.3 |
| 20260505051016 | 14 | 198 | 4.8 | 9.7 | 0.00 | 0.00 | 0.00 | 64 | 1002.4 |
| 20260505041019 | 14 | 203 | 4.8 | 9.7 | 0.00 | 0.00 | 0.00 | 65 | 1002.7 |
| 20260505040038 | 14 | 196 | 3.2 | 9.7 | 0.00 | 0.00 | 0.00 | 66 | 1002.8 |
| 20260505035018 | 13 | 188 | 3.2 | 8.0 | 0.00 | 0.00 | 0.00 | 67 | 1002.7 |
| 20260505034018 | 13 | 188 | 3.2 | 6.4 | 0.00 | 0.00 | 0.00 | 69 | 1002.8 |
| 20260505033019 | 13 | 208 | 3.2 | 6.4 | 0.00 | 0.00 | 0.00 | 69 | 1002.8 |
| 20260505032040 | 13 | 201 | 4.8 | 9.7 | 0.00 | 0.00 | 0.00 | 70 | 1003.0 |
| 20260505031017 | 12 | 197 | 3.2 | 4.8 | 0.00 | 0.00 | 0.00 | 73 | 1003.0 |
| 20260505030020 | 12 | 203 | 1.6 | 3.2 | 0.00 | 0.00 | 0.00 | 73 | 1003.1 |
| 20260505025019 | 12 | 193 | 1.6 | 4.8 | 0.00 | 0.00 | 0.00 | 74 | 1003.2 |
| 20260505024017 | 12 | 259 | 1.6 | 3.2 | 0.00 | 0.00 | 0.00 | 73 | 1003.2 |
| 20260505023019 | 12 | 176 | 1.6 | 4.8 | 0.00 | 0.00 | 0.00 | 74 | 1003.2 |
| 20260505022017 | 12 | 189 | 1.6 | 3.2 | 0.00 | 0.00 | 0.00 | 74 | 1003.3 |
| 20260505021016 | 13 | 0.0 | 0.0 | 0.00 | 0.00 | 0.00 | 74 | 1003.5 | |
| 20260505020018 | 13 | 284 | 0.0 | 1.6 | 0.00 | 0.00 | 0.00 | 73 | 1003.5 |
| 20260505015018 | 13 | 228 | 0.0 | 1.6 | 0.00 | 0.00 | 0.00 | 73 | 1003.5 |
| 20260505014037 | 13 | 220 | 0.0 | 3.2 | 0.00 | 0.00 | 0.00 | 72 | 1003.5 |
| 20260505013019 | 13 | 196 | 0.0 | 1.6 | 0.00 | 0.00 | 0.00 | 72 | 1003.5 |
| 20260505012017 | 14 | 0.0 | 0.0 | 0.00 | 0.00 | 0.00 | 71 | 1003.5 | |
| 20260505011018 | 14 | 212 | 1.6 | 3.2 | 0.00 | 0.00 | 0.00 | 71 | 1003.7 |
| 20260505010019 | 14 | 180 | 1.6 | 4.8 | 0.00 | 0.00 | 0.00 | 70 | 1003.6 |
| 20260505005058 | 15 | 180 | 1.6 | 6.4 | 0.00 | 0.00 | 0.00 | 70 | 1003.6 |
| 20260505004018 | 15 | 169 | 3.2 | 6.4 | 0.00 | 0.00 | 0.00 | 69 | 1003.5 |
| 20260505003018 | 15 | 163 | 3.2 | 8.0 | 0.00 | 0.00 | 0.00 | 69 | 1003.5 |
| 20260505002018 | 15 | 165 | 3.2 | 8.0 | 0.00 | 0.00 | 0.00 | 68 | 1003.5 |
| 20260505001058 | 15 | 159 | 4.8 | 9.7 | 0.00 | 0.00 | 0.00 | 67 | 1003.4 |
| 20260505000039 | 15 | 162 | 4.8 | 8.0 | 0.00 | 0.00 | 0.00 | 67 | 1003.3 |
| 20260504235019 | 16 | 161 | 4.8 | 8.0 | 0.00 | 0.00 | 0.00 | 66 | 1003.2 |
| 20260504234018 | 16 | 168 | 4.8 | 9.7 | 0.00 | 0.00 | 0.00 | 65 | 1003.2 |
| 20260504233039 | 16 | 169 | 4.8 | 8.0 | 0.00 | 0.00 | 0.00 | 65 | 1003.1 |
| 20260504232020 | 16 | 163 | 4.8 | 11.3 | 0.00 | 0.00 | 0.00 | 66 | 1003.1 |
| 20260504231018 | 16 | 163 | 4.8 | 8.0 | 0.00 | 0.00 | 0.00 | 65 | 1003.2 |
| 20260504230021 | 16 | 169 | 4.8 | 11.3 | 0.00 | 0.00 | 0.00 | 64 | 1003.3 |
| 20260504225017 | 16 | 173 | 4.8 | 9.7 | 0.00 | 0.00 | 0.00 | 64 | 1003.4 |